Flag for U.S.A. Weather past 2 weeks in Riverside, California, U.S.A.

66 °F

Scattered clouds.

Feels Like: 66 °F
Forecast: 57 / 73 °F
Wind: No wind

Location: Riverside Municipal Airport

Current Time: Oct 4, 2015 at 6:32:29 PM

Latest Report: Oct 4, 2015 at 5:53 PM

Visibility: 10 mi

Pressure: 29.64 "Hg

Humidity: 70%

Dew point: 56 °F

Location of RiversideLocation

Historic Weather in Riverside — Graph


Riverside temperature yesterday

Maximum temperature yesterday: 84 °F (at 1:53 PM)
Minimum temperature yesterday: 61 °F (at 5:53 AM)
Average temperature yesterday: 72 °F

Past Weeks' High & Low Weather Summary

High106 °F (Sep 20, 3:53 PM)90% (Oct 4, 8:53 AM)29.92 "Hg (Oct 4, 8:53 AM)
Low61 °F (Oct 3, 5:53 AM)11% (Sep 20, 3:53 PM)29.51 "Hg (Oct 3, 4:53 PM)
Average78 °F52%29.78 "Hg
* Reported Sep 19 4:53 PM — Oct 4 4:53 PM, Riverside, Weather by CustomWeather, © 2015

Note: Actual official high and low records may vary slightly from our data, if they occured in-between our weather recording intervals... More about our weather records


Riverside weather history for previous 24 hours

Time TempWeatherWind HumidityBarometerVisibility
4:53 PM
Sun, Oct 4
65 °FPartly sunny.5 mph76%29.63 "Hg10 mi
3:53 PM65 °FLight rain. More clouds than sun.No wind70%29.64 "Hg10 mi
2:53 PM67 °FMostly cloudy.7 mph59%29.62 "Hg10 mi
1:53 PM67 °FBroken clouds.6 mph61%29.62 "Hg10 mi
12:53 PM65 °FOvercast.5 mph68%29.64 "Hg10 mi
11:53 AM64 °FMostly cloudy.7 mph70%29.64 "Hg10 mi
10:53 AM62 °FMostly cloudy.3 mph80%29.65 "Hg10 mi
9:53 AM62 °FLight rain. Mostly cloudy.6 mph83%29.64 "Hg10 mi
8:53 AM61 °FRain. Fog.12 mph90%29.61 "Hg2 mi
7:53 AM65 °FBroken clouds.5 mph85%29.57 "Hg10 mi
6:53 AM65 °FOvercast.5 mph85%29.57 "Hg10 mi
5:53 AM67 °FMostly cloudy.7 mph73%29.55 "Hg10 mi
4:53 AM65 °FOvercast.3 mph81%29.55 "Hg10 mi
3:53 AM65 °FOvercast.3 mph81%29.57 "Hg10 mi
2:53 AM63 °FPassing clouds.5 mph84%29.57 "Hg10 mi
1:53 AM65 °FPassing clouds.No wind78%29.58 "Hg10 mi
12:53 AM65 °FClear.3 mph78%29.57 "Hg10 mi
11:53 PM
Sat, Oct 3
66 °FClear.3 mph75%29.57 "Hg10 mi
10:53 PM67 °FClear.No wind79%29.57 "Hg10 mi
9:53 PM69 °FClear.3 mph70%29.56 "Hg10 mi
8:53 PM71 °FClear.5 mph66%29.55 "Hg10 mi
7:53 PM73 °FClear.5 mph59%29.53 "Hg10 mi
6:53 PM74 °FSunny.10 mph52%29.52 "Hg10 mi
Weather by CustomWeather, © 2015

See weather overviewHow to use our weather pages